User: anonymous   Login
Location: *
(90.0000°N, 180.0000°W)
Time: 20:49:53
(UTC+02:00)
Language:

Cosmos 1825 - Orbit

View from above orbital plane
View from above orbital plane
View from above satellite
View from above satellite

Ground track
Ground track

The orbit data is extracted from the following two-line orbital elements,

1 17566U 87024A   16182.77839076  .00000588  00000-0  27448-4 0  9991
2 17566  82.5062 278.3293 0004136  21.7555 338.3853 15.17873900600520
Epoch (UTC): 30 June 2016 18:40:52
Eccentricity: 0.0004136
inclination: 82.5062°
perigee height: 509 km
apogee height: 515 km
right ascension of ascending node: 278.3293°
argument of perigee: 21.7555°
revolutions per day: 15.17873900
mean anomaly at epoch: 338.3853°
orbit number at epoch: 60052

The dashed part of the orbit path shows where the satellite is in the earth's shadow,  

DLR